Whitewater, MO (63785)

7:39 PM CDT on August 31, 2015 (GMT -0500)
Northwest Jackson | | Change Station
CLOSE
Current Station
Personal Weather Station
Location: Jackson, MO
Elevation: 465 ft
Nearby Weather Stations

Elev 465 ft 37.39 °N, 89.68 °W | Updated 6 seconds ago

Clear
Clear
80.1 °F
Feels Like 80 °F
N
0.0
Wind Variable Wind from ENE
Gusts 0.0 mph

Today
High -- | Low -- °F
--% Chance of Precip.
Yesterday
High -- | Low -- °F
Precip. -- in
6:28 AM 7:29 PM
Waning Gibbous, 92% visible
Pressure 30.03 in
Visibility 10.0 miles
Clouds Clear
Heat Index 80 °F
Dew Point 55 °F
Humidity 42%
Rainfall 0.00 in
Snow Depth Not available.
UV 0 out of 12
Pollen 10.10 out of 12
Air Quality Not available.
Flu Activity Not available.
METAR KCGI 312353Z AUTO 15005KT 10SM CLR 27/21 A3004 RMK AO2 SLP169 T02720206 10311 20272 55000
Pressure 30.03 in
Visibility 10.0 miles
Clouds Clear
Heat Index 80 °F
Dew Point 55 °F
Humidity 42%
Rainfall 0.00 in
Snow Depth Not available.
UV 0 out of 12
Pollen 10.10 out of 12
Air Quality Not available.
Flu Activity Not available.
METAR KCGI 312353Z AUTO 15005KT 10SM CLR 27/21 A3004 RMK AO2 SLP169 T02720206 10311 20272 55000

10-Day Weather Forecast

×

Almanac

Astronomy

Aug. 31, 2015 Rise Set
Actual Time
Civil Twilight
Nautical Twilight
Astronomical Twilight
Moon
Length of Visible Light
Length of Day
Tomorrow will be .
, % of the Moon is Illuminated

Today's Extremes

State Highs State Lows

Community

WunderPhotos

Upload Photos

1,851,406 photos uploaded!

WunderBlogs® & News

Nearby

Air Quality

  Air Quality AQ Index Pollutant
Not available.

Snow Depth

Station Depth Elevation

Earthquake Activity

City Distance Mag. Time & Date
Minimum magnitude displayed is 2.5.

Coastal Water Temperatures

Place Temperature

Stations

Nearby Weather Stations

Station Location Temp. Windchill Dew Point Humidity Wind Precip. Elev Updated Type